Imperial, NE

7:47 AM MDT on September 26, 2017 (GMT -0600)
Imperial Municipal

Weather History for KIML - December, 2010

Change the Weather History Date:

Tuesday, December 7, 2010

  Actual Average Record
Temperature  
Mean Temperature 36 °F 30 °F  
Max Temperature 47 °F 42 °F 72 °F (1984)
Min Temperature 24 °F 17 °F -16 °F (1909)
Degree Days  
Heating Degree Days 29 36  
Month to date heating degree days 214 243  
Cooling Degree Days 0 0  
Month to date cooling degree days 0 0  
Year to date cooling degree days 1172 963  
Moisture  
Dew Point 30 °F    
Average Humidity 83    
Maximum Humidity 92    
Minimum Humidity 73    
Precipitation  
Precipitation 0.12 in 0.02 in 0.50 in (1924)
Sea Level Pressure  
Sea Level Pressure 30.21 in    
Wind  
Wind Speed 7 mph (NW)    
Max Wind Speed 18 mph    
Max Gust Speed 22 mph    
Visibility 9 miles    
Events Rain    
T = Trace of Precipitation, MM = Missing Value Source: NWS Daily Summary

Daily Weather History Graph

Daily Weather History Graph

Search for Another Location

Airport or City:

Trip Planner

Search our weather history database for the weather conditions in past years. The results will help you decide how hot, cold, wet, or windy it might be!

Date:

Astronomy

Dec. 07, 2010 Rise Set
Actual Time 6:56 AM MST 4:19 PM MST
Civil Twilight 6:25 AM MST 4:50 PM MST
Nautical Twilight 5:51 AM MST 5:24 PM MST
Astronomical Twilight 5:18 AM MST 5:57 PM MST
Moon 8:44 AM MST (12/7) 6:20 PM MST (12/7)
Length of Visible Light 10h 24m
Length of Day
9h 23m
Waxing Crescent, 5% of the Moon is Illuminated
Dec 7
Waxing Crescent
Dec 13
First Quarter
Dec 21
Full
Dec 27
Last Quarter
Jan 4
New

Hourly Weather History & Observations

Time (MST) Temp. Windchill Dew Point Humidity Pressure Visibility Wind Dir Wind Speed Gust Speed Precip Events Conditions
12:53 AM 30.0 °F - 26.1 °F 85% 30.13 in 10.0 mi Calm Calm - N/A   Scattered Clouds
1:53 AM 30.9 °F 27.5 °F 26.1 °F 82% 30.14 in 10.0 mi NNW 3.5 mph - N/A   Overcast
2:53 AM 32.0 °F 28.7 °F 28.0 °F 85% 30.12 in 5.0 mi East 3.5 mph - 0.03 in   Overcast
3:53 AM 33.1 °F 27.7 °F 30.0 °F 89% 30.14 in 6.0 mi West 5.8 mph - 0.04 in   Overcast
4:53 AM 33.1 °F 26.9 °F 30.9 °F 92% 30.15 in 5.0 mi SW 6.9 mph - 0.02 in Rain Light Rain
5:53 AM 35.1 °F 29.3 °F 32.0 °F 89% 30.15 in 6.0 mi WSW 6.9 mph - 0.02 in Rain Light Rain
6:53 AM 34.0 °F - 33.1 °F 96% 30.16 in 6.0 mi Calm Calm - 0.01 in   Mostly Cloudy
7:53 AM 35.1 °F 31.0 °F 33.1 °F 92% 30.18 in 6.0 mi NW 4.6 mph - N/A   Clear
8:53 AM 42.1 °F 37.1 °F 36.0 °F 79% 30.17 in 10.0 mi NW 8.1 mph - N/A   Clear
9:53 AM 39.9 °F 36.7 °F 35.1 °F 83% 30.21 in 10.0 mi NNW 4.6 mph - N/A   Mostly Cloudy
10:53 AM 42.1 °F 36.6 °F 37.0 °F 82% 30.21 in 10.0 mi NNW 9.2 mph - N/A   Scattered Clouds
11:53 AM 45.0 °F 38.2 °F 37.9 °F 76% 30.20 in 10.0 mi NW 15.0 mph - N/A   Mostly Cloudy
12:53 PM 43.0 °F 35.7 °F 36.0 °F 76% 30.20 in 10.0 mi NNW 15.0 mph - N/A   Overcast
1:03 PM 42.8 °F 35.1 °F 35.6 °F 76% 30.15 in 10.0 mi NNW 16.1 mph - N/A   Overcast
1:53 PM 41.0 °F 32.8 °F 34.0 °F 76% 30.22 in 10.0 mi NNW 16.1 mph - N/A   Overcast
2:53 PM 41.0 °F 34.7 °F 34.0 °F 76% 30.25 in 9.0 mi North 10.4 mph - N/A   Mostly Cloudy
3:09 PM 42.8 °F 37.5 °F 33.8 °F 70% 30.19 in 10.0 mi North 9.2 mph - N/A   Scattered Clouds
3:53 PM 39.0 °F 34.8 °F 33.1 °F 79% 30.27 in 9.0 mi NNW 5.8 mph - N/A   Clear
4:53 PM 35.1 °F 31.0 °F 30.9 °F 85% 30.28 in 10.0 mi NNW 4.6 mph - N/A   Clear
5:53 PM 30.9 °F 25.2 °F 28.0 °F 89% 30.29 in 10.0 mi NW 5.8 mph - N/A   Clear
6:53 PM 30.9 °F 24.3 °F 26.1 °F 82% 30.30 in 10.0 mi NNW 6.9 mph - N/A   Clear
7:53 PM 28.0 °F 20.8 °F 24.1 °F 85% 30.31 in 10.0 mi NNW 6.9 mph - N/A   Clear
8:53 PM 24.8 °F 17.9 °F 21.2 °F 86% 30.22 in 10.0 mi West 5.8 mph - N/A   Clear
9:53 PM 28.0 °F 21.7 °F 23.0 °F 81% 30.29 in 10.0 mi West 5.8 mph - N/A   Clear
10:53 PM 28.0 °F 22.8 °F 24.1 °F 85% 30.30 in 10.0 mi West 4.6 mph - N/A   Clear
11:53 PM 26.1 °F 19.4 °F 21.9 °F 84% 30.27 in 10.0 mi West 5.8 mph - N/A   Clear